Tracking 30115 objects as of 9-Feb-2025
HD Live streaming from Space Station
objects crossing your sky now

GEESAT 3-07

Track GEESAT 3-07 now!
10-day predictions


NORAD ID: 61017
Int'l Code: 2024-159G
Perigee: 590.1 km
Apogee: 606.3 km
Inclination: 50.0 °
Period: 96.5 minutes
Semi major axis: 6969 km
RCS: Unknown
Launch date: September 5, 2024
Source: People's Republic of China (PRC)
Launch site: Taiyaun Space Center, China (TSC)
Your satellite tracking list
Your tracking list is empty




NASA's NSSDC Master Catalog

Two Line Element Set (TLE):
1 61017U 24159G   25040.60291486  .00007201  00000-0  72121-3 0  9999
2 61017  49.9913 222.5343 0011669 153.5587 206.5952 14.92200824 22780
Source of the keplerian elements: AFSPC